Regional Weather Roundup
Issued by NWS

Home | Current Version | Previous Version | Text Only | Print | Product List | Glossary Off
Versions: 1 2 3 4 5 6 7 8 9 10 11 12 13 14 15 16 17 18 19 20 21 22 23 24 25 26 27 28 29 30 31 32 33 34 35 36 37 38 39 40 41 42 43 44 45 46 47 48 49 50

000
ASUS45 KTFX 272019
RWRMT
MONTANA HOURLY WEATHER ROUNDUP
NATIONAL WEATHER SERVICE GREAT FALLS MT
219 PM MDT SUN JUL 27 2014

NOTE: "FAIR" INDICATES FEW OR NO CLOUDS BELOW 12000 FEET WITH NO
SIGNIFICANT WEATHER AND/OR OBSTRUCTIONS TO VISIBILITY.

* THESE STATIONS ARE NOT UNDER NWS QUALITY CONTROL. THEY DO NOT
   REPORT WEATHER SUCH AS PRECIPITATION OR FOG.

MTZ001>007-043-272100-
WEST OF THE DIVIDE
CITY           SKY/WX    TMP DP  RH WIND       PRES   REMARKS
KALISPELL      SUNNY     81  43  26 CALM      30.22F
MISSOULA       SUNNY     84  37  19 W5        30.20F
BUTTE          SUNNY     82  25  12 CALM      30.32F
MULLAN PASS    SUNNY     72  37  28 CALM      30.38S
* ESSEX        N/A       81  38  21 NE4        N/A
* LINCOLN      N/A       82  36  19 S5         N/A
* LOOKOUT PASS N/A       77  39  26 NW5        N/A
* POLSON       N/A       82  47  29 N3         N/A
* RONAN APT    SUNNY     79  48  34 N5         N/A
* SEELEY LAKE  N/A       82  36  19 N5         N/A
* THOMP F APT  SUNNY     84  24  11 S4G16      N/A
* YAAK HILL    N/A       86  42  21 SW2        N/A
$$

MTZ008-052>055-272100-
SOUTHWEST MONTANA
CITY           SKY/WX    TMP DP  RH WIND       PRES   REMARKS
BOZEMAN        SUNNY     84  37  19 VRB5      30.28F
DILLON         SUNNY     84  34  17 NE7       30.30F
W YELLOWSTONE  SUNNY     81  23  12 SW12      30.38F
* THREE FORKS  SUNNY     82  43  25 N/A        N/A
* BOULDER HILL N/A       79  38  23 SE3        N/A
* MONIDA PASS  N/A       77  26  15 W3G11      N/A
* RAYNOLDS PAS N/A       79  61  54 S7         N/A
* WHITEHALL    N/A       84  37  19 S5         N/A
* WISE RIVER   N/A       82  28  14 NW6        N/A
$$

MTZ009>010-012-014-046-048-049-054-272100-
EAST SLOPES AND CENTRAL MONTANA
CITY           SKY/WX    TMP DP  RH WIND       PRES   REMARKS
CUT BANK       SUNNY     81  41  24 SE7       30.27S
GREAT FALLS    SUNNY     82  36  19 CALM      30.24F
HELENA         SUNNY     86  36  17 VRB7      30.23F
MALMSTROM AFB  SUNNY     82  37  20 VRB3      30.25F
* CONRAD       SUNNY     81  43  26 N/A        N/A
* DEARBORN     N/A       85  39  20 NE4G9      N/A
* EAST GLACIER N/A       77  42  29 SW4G10     N/A
* MONARCH      N/A       79  36  21 NE10       N/A
* ROGERS PASS  N/A       78  22  12 E5G11      N/A
* SAINT MARY   N/A       78  38  24 W6         N/A
* SWEET GRASS  N/A       79  39  24 S11G18     N/A
* WHITE SULPH  N/A       79  34  20 N7G12      N/A
$$

MTZ011-013-016-021-035-040-045-047-050-051-272100-
NORTH CENTRAL MONTANA
CITY           SKY/WX    TMP DP  RH WIND       PRES   REMARKS
HAVRE          SUNNY     82  43  25 N/A       30.24F
LEWISTOWN      SUNNY     82  37  20 VRB7      30.29F
* FORT BENTON  SUNNY     84  37  19 NE5       30.22F
* CHESTER      N/A       82  39  22 SE3G10     N/A
* DENTON       N/A       86  41  20 S5G11      N/A
* JUDITH GAP   N/A       76  43  31 SE8G16     N/A
* LOMA         N/A       83  38  20 SW6G11     N/A
$$

MTZ017>020-022>027-061-062-272100-
NORTHEAST MONTANA
CITY           SKY/WX    TMP DP  RH WIND       PRES   REMARKS
GLASGOW        SUNNY     79  48  34 VRB3      30.26F
GLENDIVE       PTSUNNY   73  50  44 NW5       30.29S
JORDAN         SUNNY     82  39  22 VRB3G22   30.26F
SIDNEY         PTCLDY    73  55  53 E7        30.29F
WOLF POINT     PTSUNNY   79  52  39 VRB5      30.25F
* BEAVER HILL  N/A       70  51  51 NE3G12     N/A
* CIRCLE       N/A       77  53  43 W7G12      N/A
* LINDSAY DVD  N/A       72  51  48 NW7G12     N/A
* NAVAJO       N/A       72  56  57 SE2        N/A
$$

MTZ028>042-056>058-272100-
SOUTHCENTRAL AND SOUTHEAST MONTANA
CITY           SKY/WX    TMP DP  RH WIND       PRES   REMARKS
BAKER          PTCLDY    75  48  39 VRB6      30.30F
BILLINGS       SUNNY     84  39  20 SE7       30.28F
LIVINGSTON     SUNNY     84  37  19 E8G18     30.29F
MILES CITY     SUNNY     82  45  27 VRB7      30.27F
* LAUREL APT   SUNNY     82  43  25 NE5        N/A
* ROUNDUP APT  SUNNY     82  39  22 S6         N/A
* ALZADA       N/A       78  43  29 W3G14      N/A
* HYSHAM       N/A       81  45  28 NE4G13     N/A
* LAME DEER    N/A       75  40  28 NE6        N/A
* REED POINT   N/A       84  44  25 E9         N/A
* ROSCOE HILL  N/A       78  39  25 NE3G11     N/A
$$

REGIONAL REPORTS...DAKOTAS
CITY           SKY/WX    TMP DP  RH WIND       PRES   REMARKS
WILLISTON      PTSUNNY   72  52  49 VRB7      30.30F
DICKINSON      CLOUDY    70  52  53 N9        30.29S
CROSBY         CLOUDY    64  55  73 N7        30.31S
TIOGA          CLOUDY    66  57  73 NW7       30.33S
WATFORD CITY   SUNNY     70  52  53 N13G18    30.28F
BISMARCK       CLOUDY    68  52  57 N14       30.27R
GRAND FORKS    CLOUDY    64  57  78 N10       30.15R
FARGO          CLOUDY    70  57  64 N18G23    30.13R
BUFFALO SD     SUNNY     75  52  45 VRB5      30.24S
RAPID CITY     SUNNY     81  48  32 N15G23    30.29F
$$

REGIONAL REPORTS...WYOMING/IDAHO/WASHINGTON
CITY           SKY/WX    TMP DP  RH WIND       PRES   REMARKS
GILLETTE       SUNNY     82  39  22 VRB5      30.33F
SHERIDAN       SUNNY     84  39  20 E7        30.30F
YELLOWSTONE LA SUNNY     73  46  38 VRB3      30.50F
SALMON         SUNNY     86  37  17 NW6       30.16F
MULLAN PASS    SUNNY     72  37  28 CALM      30.38S
SAND POINT     SUNNY     81  54  39 E6        30.17F
SPOKANE        PTCLDY    88  36  16 N7        30.15F
$$

REGIONAL REPORTS...ALBERTA
CITY           SKY/WX    TMP DP  RH WIND       PRES   REMARKS
CALGARY        SUNNY     79  43  28 S9G21     30.25S
LETHBRIDGE     SUNNY     75  54  48 VRB5      30.25F
MEDICINE HAT   SUNNY     81  46  29 E8        30.24F
EDMONTON       SUNNY     75  59  58 S7        30.20F
WATERTON GATE  N/A       79  45  30 E5         N/A
CARDSTON       N/A       79  46  31 E2         N/A
MILK RIVER     N/A       82  39  22 SE8        N/A
$$

REGIONAL REPORTS...SASKATCHEWAN
CITY           SKY/WX    TMP DP  RH WIND       PRES   REMARKS
SWIFT CURRENT  SUNNY     70  52  53 SW3       30.27S
MOOSE JAW      PTSUNNY   72  59  64 SE2       30.28S
REGINA         PTSUNNY   66  55  68 CALM      30.29S
VAL MARIE      N/A       73  54  51 N5         N/A
ASSINIBOIA     N/A       68  54  61 NW3        N/A
CORONACH       N/A       73  55  53 E7         N/A

$$




USA.gov is the U.S. government's official web portal to all federal, state and local government web resources and services.